Location: Ar Ranvel
(48.3000°N, 4.8833°W)
Time: 04:05:17
(UTC+00:00)

COSMOS 2251 DEB - Pass Details

Date: 05 February 2022
Orbit: 755 x 1085 km, 74.1° (Epoch: 18 May)

Event Time Altitude Azimuth Distance (km) Brightness Sun altitude
Rises 18:44:34 0° 334° (NNW) 3,857 ? -13.5°
Reaches altitude 10° 18:47:12 10° 331° (NNW) 2,921 ? -13.9°
Maximum altitude 18:53:57 59° 255° (WSW) 1,243 ? -15.0°
Drops below altitude 10° 19:00:40 10° 177° (S) 2,900 ? -16.2°
Sets 19:03:16 0° 174° (S) 3,828 ? -16.6°
